Alexandria Esle, LA

10:45 AM CDT on August 22, 2017 (GMT -0500)
Alexandria Esler Regional

Weather History for KESF - November, 2013

Change the Weather History Date:

Friday, November 8, 2013

  Actual Average Record
Temperature  
Mean Temperature 50 °F -  
Max Temperature 64 °F 69 °F 87 °F (1988)
Min Temperature 37 °F 45 °F 28 °F (1967)
Degree Days  
Heating Degree Days 14    
Moisture  
Dew Point 41 °F    
Average Humidity 78    
Maximum Humidity 97    
Minimum Humidity 35    
Precipitation  
Precipitation 0.00 in - - ()
Sea Level Pressure  
Sea Level Pressure 30.30 in    
Wind  
Wind Speed 1 mph (East)    
Max Wind Speed 8 mph    
Max Gust Speed -    
Visibility 10 miles    
Events      
Averages and records for this station are not official NWS values.
T = Trace of Precipitation, MM = Missing Value Source: NWS Daily Summary

Daily Weather History Graph

Daily Weather History Graph

Search for Another Location

Airport or City:

Trip Planner

Search our weather history database for the weather conditions in past years. The results will help you decide how hot, cold, wet, or windy it might be!

Date:

Astronomy

Nov. 08, 2013 Rise Set
Actual Time 6:30 AM CST 5:14 PM CST
Civil Twilight 6:05 AM CST 5:39 PM CST
Nautical Twilight 5:36 AM CST 6:08 PM CST
Astronomical Twilight 5:07 AM CST 6:37 PM CST
Moon 11:26 AM CST (11/8) 10:34 PM CST (11/8)
Length of Visible Light 11h 34m
Length of Day
10h 43m
Waxing Crescent, 33% of the Moon is Illuminated
Nov 8
Waxing Crescent
Nov 9
First Quarter
Nov 17
Full
Nov 25
Last Quarter
Dec 2
New

Hourly Weather History & Observations

Time (CST) Temp. Dew Point Humidity Pressure Visibility Wind Dir Wind Speed Gust Speed Precip Events Conditions
12:05 AM 39.2 °F 37.4 °F 93% 30.36 in 9.0 mi Calm Calm - N/A   Clear
12:53 AM 39.0 °F 37.9 °F 96% 30.37 in 5.0 mi Calm Calm - N/A   Clear
1:53 AM 37.9 °F 37.0 °F 97% 30.36 in 10.0 mi Calm Calm - N/A   Clear
2:53 AM 37.9 °F 37.0 °F 97% 30.35 in 10.0 mi Calm Calm - N/A   Clear
3:53 AM 37.0 °F 36.0 °F 96% 30.35 in 8.0 mi Calm Calm - N/A   Clear
4:53 AM 37.0 °F 36.0 °F 96% 30.35 in 10.0 mi Calm Calm - N/A   Clear
5:53 AM 37.9 °F 37.0 °F 97% 30.35 in 10.0 mi Calm Calm - N/A   Clear
6:53 AM 41.0 °F 39.9 °F 96% 30.36 in 10.0 mi Calm Calm - N/A   Clear
7:53 AM 44.1 °F 42.1 °F 93% 30.38 in 10.0 mi Calm Calm - N/A   Clear
8:53 AM 48.9 °F 42.1 °F 77% 30.39 in 10.0 mi Calm Calm - N/A   Clear
9:53 AM 54.0 °F 42.1 °F 64% 30.39 in 10.0 mi Variable 3.5 mph - N/A   Clear
10:53 AM 59.0 °F 39.0 °F 48% 30.37 in 10.0 mi East 8.1 mph - N/A   Clear
11:53 AM 61.0 °F 39.0 °F 44% 30.32 in 10.0 mi East 8.1 mph - N/A   Clear
12:53 PM 63.0 °F 39.0 °F 41% 30.29 in 10.0 mi North - - N/A   Clear
1:53 PM 63.0 °F 39.0 °F 41% 30.26 in 10.0 mi ENE 5.8 mph - N/A   Clear
2:53 PM 64.0 °F 36.0 °F 35% 30.25 in 10.0 mi Calm Calm - N/A   Clear
3:53 PM 64.0 °F 37.0 °F 37% 30.25 in 10.0 mi Variable 3.5 mph - N/A   Clear
4:53 PM 55.9 °F 45.0 °F 67% 30.24 in 10.0 mi Calm Calm - N/A   Clear
5:53 PM 51.1 °F 46.0 °F 83% 30.24 in 10.0 mi Calm Calm - N/A   Clear
6:53 PM 48.0 °F 46.0 °F 93% 30.25 in 10.0 mi Calm Calm - N/A   Clear
7:53 PM 48.9 °F 46.0 °F 90% 30.24 in 10.0 mi Calm Calm - N/A   Clear
8:53 PM 48.0 °F 46.0 °F 93% 30.23 in 10.0 mi Calm Calm - N/A   Clear
9:53 PM 46.9 °F 45.0 °F 93% 30.22 in 10.0 mi Calm Calm - N/A   Clear
10:53 PM 46.0 °F 45.0 °F 96% 30.21 in 9.0 mi Calm Calm - N/A   Clear
11:53 PM 46.9 °F 45.0 °F 93% 30.21 in 10.0 mi Calm Calm - N/A   Clear